Theta_e
317 317 317 317 317 316 317 317 318 318 319 319 319 320 321 321 321 321 322 322 323 324 324 324 325 325 326 327 327 327 326 316 320 317 315 316 321 331 337 339 340 340 334 312 310 308 303 303 303 304 303 305 305 307 310 309 306 302 294 289 287 290 289 293 295 294 293 294 295 298 298 296 296 299 300 301 299 298 299 300 301 303 302 302 304 305 307 309
317 317 316 316 316 316 316 317 317 318 318 319 319 320 320 321 321 321 322 322 323 323 324 324 325 326 326 326 327 327 321 317 315 310 309 327 334 338 340 339 339 338 329 311 306 303 302 301 302 302 301 300 307 304 308 307 305 298 293 288 289 290 294 295 296 296 295 295 296 298 296 296 297 297 299 296 296 297 297 298 299 299 300 302 303 304 307 308
316 316 316 315 316 316 316 317 317 317 318 318 319 320 320 320 321 322 321 322 323 323 323 324 325 325 326 326 325 325 319 319 317 309 313 332 337 339 339 338 334 333 314 310 308 306 304 302 302 302 300 298 302 302 303 303 302 299 292 289 290 294 295 297 297 297 297 297 297 297 298 296 299 298 300 297 295 295 295 296 298 298 298 300 302 304 305 306
316 315 315 316 316 317 317 316 316 317 318 319 319 319 319 320 321 322 322 322 322 323 323 324 324 325 325 325 326 320 318 313 305 309 321 332 337 339 335 333 333 330 319 314 310 306 305 304 303 303 303 299 299 302 298 303 297 299 292 291 293 294 294 296 298 298 297 297 296 296 297 296 298 298 298 296 296 295 296 297 297 298 299 300 301 302 304 305
316 315 316 316 316 316 316 317 317 317 317 318 318 319 319 320 321 321 322 322 322 323 323 324 324 325 325 325 324 317 316 298 303 315 321 333 336 336 334 334 331 318 313 310 308 307 306 305 303 303 300 295 299 297 296 300 301 296 295 294 295 294 294 298 298 298 297 296 296 296 296 296 300 299 297 297 293 292 295 298 298 299 300 300 301 302 303 303
316 315 316 316 316 316 316 316 317 317 317 318 318 319 319 320 321 321 321 322 322 323 323 324 324 324 325 325 317 316 306 289 304 311 331 332 334 332 335 333 331 314 310 309 306 305 305 303 302 299 298 296 297 293 297 299 300 293 295 297 296 297 296 298 299 298 296 298 296 296 298 299 297 297 297 296 295 296 299 299 299 300 300 301 302 302 302 302
315 316 316 316 315 316 316 316 316 316 316 317 318 319 319 320 321 321 321 321 322 323 323 324 324 325 324 323 314 315 305 304 314 318 325 331 332 332 332 332 325 312 310 306 305 305 303 302 301 299 298 294 296 295 299 298 298 294 293 296 298 297 299 299 299 298 296 296 298 298 299 298 297 297 297 297 298 298 299 299 299 300 301 302 301 301 301 302
315 316 315 315 315 315 314 315 315 316 316 317 318 319 319 320 321 321 321 321 322 323 323 324 324 324 324 315 316 306 306 305 313 321 326 329 330 323 322 316 314 312 308 306 306 304 304 301 300 301 296 295 297 297 298 296 296 295 295 297 298 298 298 297 296 297 297 297 296 298 298 296 296 296 297 296 298 298 299 299 299 299 300 299 300 300 301 301
316 316 315 314 314 314 315 315 316 316 316 316 318 319 320 320 320 320 321 321 322 322 323 324 323 324 323 315 311 300 300 316 320 319 321 321 316 311 313 312 310 307 306 306 306 307 306 302 301 301 296 297 299 297 296 296 292 298 298 297 297 297 299 297 297 297 297 298 298 298 295 295 296 297 296 297 298 298 299 299 299 299 298 298 298 299 299 300
316 316 315 315 315 314 315 315 315 316 316 316 317 318 319 320 320 320 321 321 322 322 323 323 324 323 316 316 305 296 308 319 321 321 317 315 312 312 310 312 310 308 307 306 306 305 304 304 304 305 304 300 300 298 297 295 293 297 296 296 297 297 296 297 298 297 297 298 296 296 295 295 296 296 291 297 298 298 298 298 298 298 297 298 298 298 299 299
317 317 316 316 316 316 316 316 316 317 317 317 317 318 319 319 320 320 320 321 322 322 323 323 324 320 313 312 301 298 316 320 319 314 315 314 312 311 311 312 311 311 308 307 306 307 306 306 306 305 302 297 298 296 296 297 298 297 297 295 296 296 296 296 296 297 296 297 296 297 294 295 295 296 293 296 298 298 298 297 297 297 297 297 298 298 298 299
317 317 317 318 317 317 318 317 317 316 317 317 316 317 318 319 320 320 321 321 322 323 323 323 323 317 315 308 300 302 316 317 317 313 314 313 315 314 313 312 311 312 308 307 310 311 309 309 306 301 296 302 295 297 297 298 298 297 297 294 292 294 296 295 296 297 297 296 296 297 295 292 293 292 294 297 298 297 297 297 296 296 296 296 297 297 297 297
317 317 317 318 319 318 319 319 318 317 317 317 316 317 318 319 320 320 321 321 322 323 323 323 321 318 312 301 306 311 310 315 313 314 315 312 311 311 312 313 313 310 310 309 309 310 310 307 303 300 303 299 297 295 298 299 298 298 296 293 293 291 291 296 297 296 296 297 295 296 286 287 291 294 295 297 297 296 296 295 296 296 296 296 296 296 296 297
318 317 317 318 319 319 320 320 319 317 317 317 317 317 318 319 320 320 321 321 323 323 324 324 316 313 309 304 312 312 315 316 315 314 314 314 312 311 312 312 312 311 313 310 310 308 310 306 307 303 305 299 298 303 298 297 297 292 293 293 288 288 286 293 296 295 296 296 295 296 287 287 290 293 295 296 297 296 295 295 295 296 296 295 295 296 296 296
319 318 318 318 319 319 320 321 320 318 318 318 317 317 318 318 319 320 322 322 322 323 324 322 313 313 301 301 313 316 329 316 311 311 312 311 310 310 311 310 309 309 308 310 309 309 307 307 305 300 297 300 301 298 292 293 293 293 290 284 287 288 287 293 296 296 295 295 295 294 287 289 292 293 295 296 296 296 295 295 295 295 295 296 295 295 295 295
319 319 318 319 319 320 321 320 320 319 319 318 317 317 318 319 320 322 322 321 323 323 319 316 317 308 298 298 310 325 315 308 309 311 310 316 311 310 308 308 310 309 307 306 308 308 305 307 300 299 298 299 295 289 288 288 289 291 289 284 287 287 288 291 295 296 295 293 295 295 287 289 291 293 294 295 296 295 294 295 295 295 296 296 295 295 295 295
319 319 319 319 319 320 321 320 320 319 318 318 317 317 318 319 321 322 322 322 320 320 315 314 309 309 297 306 313 310 307 311 313 314 313 313 313 309 308 307 306 306 305 307 307 306 304 302 301 299 301 292 291 291 286 284 285 286 289 288 288 289 288 288 291 295 295 295 291 292 291 290 291 292 294 295 296 295 294 295 295 295 295 296 295 295 295 294
319 319 319 319 319 320 321 320 319 318 318 318 316 317 317 320 322 321 320 320 317 316 317 320 312 301 299 305 300 303 310 309 312 312 311 310 311 309 307 305 306 303 305 303 303 301 302 298 298 292 294 296 294 289 285 283 286 284 288 287 288 290 290 290 290 291 293 293 291 291 289 291 292 292 293 295 296 295 295 295 296 295 295 295 295 295 295 294
320 319 319 319 319 319 321 320 319 319 318 318 319 320 321 321 316 314 314 315 309 301 297 301 301 291 291 300 306 309 312 313 312 311 309 309 312 311 308 307 304 301 299 297 297 299 299 295 295 291 290 290 291 292 290 290 291 290 290 288 288 289 288 290 292 294 295 291 291 290 289 291 293 292 293 294 295 294 295 294 294 294 294 294 295 294 294 293
320 320 320 320 319 320 321 320 319 319 319 315 313 313 310 307 307 306 309 311 306 301 301 304 305 302 303 305 306 308 311 310 306 308 309 311 309 307 306 304 303 302 296 294 296 297 298 291 288 288 291 293 293 294 294 294 294 293 292 291 290 289 290 293 292 294 294 293 290 292 292 291 292 293 294 295 294 293 293 293 294 294 294 294 294 294 293 292
319 320 320 320 320 320 320 320 319 319 318 314 314 312 303 303 294 294 303 306 308 308 305 304 305 303 302 306 306 306 303 304 306 306 308 312 307 305 300 301 298 295 295 296 295 297 298 290 289 293 295 295 295 296 295 294 294 293 291 289 289 289 289 293 294 294 294 292 288 290 290 291 293 293 294 293 293 293 293 293 293 294 294 294 294 293 293 293
319 319 320 320 320 321 321 320 319 319 319 315 313 310 310 310 309 308 306 300 305 310 309 307 306 304 308 306 307 308 307 301 303 306 310 309 304 300 298 298 294 293 295 296 294 293 290 289 292 295 298 296 296 295 294 294 293 292 290 290 288 289 291 293 293 294 293 293 288 288 290 292 293 294 293 293 294 295 296 296 296 295 294 294 294 293 292 292
319 319 320 320 320 321 321 320 319 319 313 311 309 311 309 312 313 312 310 301 300 307 307 307 305 304 304 306 307 308 303 299 299 304 306 308 302 300 299 296 295 295 297 295 292 289 288 290 295 298 297 296 296 295 295 293 293 290 289 288 288 288 290 286 290 292 293 291 288 289 289 291 293 294 294 294 295 295 296 296 295 295 295 294 294 294 292 292
318 319 320 320 321 321 321 320 320 316 311 311 311 311 313 314 313 314 306 296 294 300 306 308 308 305 303 304 307 306 303 301 302 302 308 305 300 300 298 297 296 295 294 295 295 292 292 295 298 298 297 296 295 295 293 291 291 289 291 289 288 289 290 290 289 292 292 292 293 290 289 290 292 293 295 295 294 293 293 294 294 294 294 294 294 294 293 292
318 319 319 320 320 321 320 319 313 309 309 311 309 314 315 314 315 313 304 296 295 297 309 308 309 307 306 309 308 304 303 303 302 307 308 306 301 299 297 300 297 293 295 296 295 293 294 298 298 296 295 296 294 293 292 292 289 289 290 292 291 291 291 292 292 291 287 286 290 291 284 282 286 292 293 292 290 291 292 292 292 292 292 293 293 293 293 293
318 318 319 319 320 320 320 311 309 311 309 306 309 312 314 314 313 312 304 293 288 295 302 298 309 303 312 303 306 303 302 298 303 306 308 307 309 302 300 297 298 293 295 294 294 294 294 298 300 296 294 294 294 293 292 293 290 287 288 293 293 293 292 291 290 290 282 283 289 292 286 282 286 290 291 290 290 291 290 291 292 291 291 292 293 292 292 292
318 318 319 319 320 320 311 305 313 311 305 306 312 314 313 313 315 311 297 287 284 297 297 304 303 303 310 304 305 303 291 293 305 306 305 310 305 309 299 295 298 298 299 300 295 291 295 295 296 296 294 293 291 290 294 294 290 286 290 294 293 291 290 291 291 290 286 286 289 291 287 284 286 291 294 291 290 290 290 291 291 291 291 291 291 292 292 292
318 318 319 320 320 318 312 313 310 307 307 312 313 314 314 314 311 310 293 278 279 301 297 298 305 309 308 305 306 301 298 302 298 301 301 305 306 302 300 296 296 296 297 297 288 295 294 292 293 293 292 292 291 291 293 294 291 288 293 293 292 292 291 290 290 287 285 285 284 286 289 284 284 286 290 292 289 289 289 291 291 291 292 291 291 292 291 292
318 318 318 319 320 319 317 312 309 307 312 314 314 314 317 314 310 299 287 279 298 297 309 301 312 307 303 305 302 298 299 298 296 298 302 305 305 301 296 296 296 296 297 297 293 293 297 294 296 296 294 291 292 292 293 295 291 293 293 293 292 291 290 290 286 288 284 283 282 284 288 284 286 286 286 288 288 290 291 292 293 292 292 292 291 291 291 291
318 318 318 319 319 316 314 315 311 313 312 315 316 317 314 309 301 291 283 277 300 292 300 301 300 298 301 299 298 299 297 297 296 299 301 299 302 302 300 303 299 297 294 296 294 294 297 295 296 296 293 294 291 292 290 294 294 294 293 291 289 287 285 283 283 283 285 281 284 286 288 287 283 285 288 287 288 292 294 292 292 291 291 292 292 292 291 290
318 318 318 319 313 314 314 309 313 313 316 316 316 313 310 303 291 285 280 287 297 296 298 296 295 301 298 297 294 298 296 295 297 297 295 300 297 298 298 296 299 291 289 287 289 290 293 294 294 293 296 293 293 292 292 291 294 295 289 285 286 285 280 281 282 285 281 282 284 288 288 288 282 281 287 293 292 291 292 293 292 290 291 291 291 291 291 290
317 318 319 317 317 317 310 308 315 315 316 317 314 309 303 290 293 284 283 295 287 291 294 291 296 297 297 300 298 296 295 295 295 296 294 292 291 294 294 292 292 286 287 287 287 288 288 288 291 294 296 295 290 290 290 287 290 291 289 289 285 281 279 276 280 278 280 282 282 286 288 283 285 291 289 290 291 294 292 294 294 292 291 291 290 290 290 290
317 317 318 318 316 314 315 317 317 315 315 314 310 305 296 288 282 290 289 291 287 295 293 298 296 297 297 296 293 295 296 292 295 296 296 294 292 293 294 294 294 292 284 285 288 286 286 287 292 292 293 294 295 291 284 286 288 289 289 285 283 278 278 278 276 276 276 280 283 282 285 285 284 288 293 296 298 292 289 289 291 293 292 291 290 290 290 290
318 317 316 317 317 316 317 317 316 316 314 311 305 300 294 285 284 296 292 292 292 295 297 294 296 295 296 293 293 296 291 295 295 294 296 291 291 289 291 293 294 293 289 284 285 285 281 282 289 292 288 294 296 296 294 288 288 290 289 290 286 284 279 277 278 277 277 279 278 280 283 279 280 287 288 286 286 287 287 289 290 290 291 291 290 289 289 289
317 317 317 317 316 317 316 317 316 316 313 308 301 295 286 285 289 288 290 293 293 296 294 297 295 293 292 291 293 297 294 289 295 294 293 291 288 287 289 292 294 294 288 287 285 282 287 287 288 297 292 295 294 296 293 289 289 287 288 289 285 287 285 284 278 277 276 276 275 277 281 281 286 287 286 286 287 287 287 288 290 289 289 288 288 288 288 289
316 315 317 312 312 315 317 317 316 315 311 304 296 289 287 290 287 293 290 299 297 293 293 295 293 290 287 289 292 294 296 291 293 292 290 291 290 290 291 291 293 296 293 289 286 283 285 284 288 293 292 295 295 295 294 295 286 286 289 286 289 290 290 284 280 279 279 279 281 280 281 283 286 290 287 288 288 287 287 288 288 288 288 288 288 288 288 288
312 314 309 312 312 316 317 317 315 313 309 301 294 287 293 294 298 296 299 297 298 298 294 289 290 290 288 288 288 291 293 293 291 290 286 290 290 292 290 294 297 296 298 296 289 292 286 286 288 289 289 291 289 292 293 292 292 287 283 288 290 290 289 287 283 283 281 280 283 282 282 282 282 284 284 286 286 287 288 286 287 286 287 287 287 288 288 288
312 311 311 311 314 317 317 316 314 311 305 298 291 293 297 293 301 299 300 299 298 299 294 292 289 294 288 289 288 290 292 291 290 289 285 291 287 296 295 293 297 298 299 298 293 290 293 285 286 286 288 290 291 294 293 294 292 290 287 291 291 283 283 285 284 280 280 279 281 280 281 284 284 287 283 285 285 287 287 286 285 286 286 287 287 287 288 288
312 310 303 311 317 317 316 316 313 306 299 293 291 291 296 296 301 299 302 302 300 298 294 294 292 293 293 290 290 292 292 288 290 289 286 288 287 294 295 297 294 298 299 300 294 292 290 287 284 286 287 289 290 290 284 287 293 291 292 290 289 284 281 282 285 282 283 280 276 279 278 282 285 288 286 289 288 289 288 286 286 288 288 288 288 288 288 288
308 302 301 314 316 317 316 314 307 302 297 289 292 293 299 295 299 302 303 302 298 298 295 295 296 293 294 293 293 289 291 290 290 289 289 289 291 296 295 299 296 296 299 300 297 298 290 290 283 285 286 289 284 286 288 290 287 285 286 284 288 286 287 285 282 283 279 274 274 277 278 280 281 288 290 291 290 290 289 289 289 289 288 289 289 289 288 288
309 302 303 314 316 317 314 307 299 295 294 295 296 294 297 295 299 300 303 304 300 301 297 296 296 294 294 292 291 294 290 291 291 289 290 289 292 286 294 297 298 295 296 297 295 293 290 286 286 282 283 283 284 288 291 292 293 290 289 287 290 286 284 281 281 284 283 280 278 275 280 284 287 289 288 290 292 291 291 291 290 290 289 289 289 289 289 288
303 295 300 314 316 315 307 296 296 299 295 289 289 294 294 302 299 299 301 302 302 299 300 297 297 297 294 294 293 291 291 289 289 288 289 290 293 291 293 294 297 298 296 291 294 294 293 285 284 280 282 286 287 289 290 290 290 289 290 287 291 290 288 285 281 279 282 286 280 276 273 285 286 287 286 286 288 291 291 291 291 290 290 289 289 289 289 289
300 298 305 311 315 312 303 295 297 296 293 293 298 297 300 299 298 300 299 301 299 301 298 296 297 297 297 296 291 291 293 288 291 290 290 291 291 293 293 292 298 299 299 289 296 294 294 288 287 285 287 287 289 289 289 289 291 288 287 285 287 287 288 289 287 285 285 281 280 276 277 282 285 286 285 285 285 287 289 290 290 290 290 290 289 288 288 288
299 298 301 308 313 311 300 290 290 293 293 295 295 295 300 299 298 298 298 300 299 297 296 295 297 300 298 296 293 292 294 289 292 292 288 288 290 289 288 291 298 296 297 293 294 297 290 287 288 285 284 284 286 288 288 288 287 284 284 287 289 290 290 289 287 286 282 284 282 281 279 284 286 285 283 285 285 287 289 289 290 289 289 290 289 289 289 289
297 300 299 302 305 307 297 298 293 291 291 292 292 292 294 296 299 301 300 298 301 299 297 296 299 298 297 297 294 294 294 295 289 292 291 288 289 288 289 289 291 296 295 294 296 300 292 287 288 284 281 279 278 278 280 283 285 286 284 285 289 289 288 287 285 287 283 285 285 284 284 288 286 286 286 286 285 286 287 287 288 290 290 290 290 290 290 289
293 284 295 298 300 298 299 298 299 294 291 290 289 291 294 292 297 300 302 300 302 301 300 297 297 299 295 294 292 292 292 293 291 288 290 288 287 287 287 285 289 293 293 296 297 296 288 287 289 289 287 286 286 284 286 286 283 284 284 287 287 289 291 290 289 286 284 285 284 288 288 287 286 286 286 286 284 287 288 287 288 289 290 291 291 290 290 290
297 289 288 286 296 296 294 297 296 296 291 294 287 291 289 292 295 296 301 295 301 300 298 297 296 295 293 296 294 292 293 292 289 289 289 289 285 286 289 287 289 291 293 294 294 291 287 287 289 289 288 289 283 285 286 288 285 286 285 285 288 288 288 288 287 285 288 285 283 289 289 287 289 287 287 285 284 285 287 289 290 291 291 291 291 290 291 288
290 293 295 297 291 286 288 291 296 296 296 295 291 294 290 291 293 290 296 299 299 301 295 292 295 298 297 296 296 290 290 290 289 289 289 287 286 287 287 289 287 290 292 290 292 290 288 286 288 288 288 290 289 286 286 287 287 287 287 287 286 287 287 286 287 290 289 287 285 288 289 288 290 289 290 289 288 289 289 289 291 292 291 290 289 289 289 289
294 292 294 299 290 293 292 294 296 295 295 294 292 292 290 291 290 294 294 294 296 295 298 290 293 296 297 298 295 291 291 288 287 290 288 287 287 286 285 287 289 289 290 288 290 288 289 288 287 289 288 289 289 287 285 287 286 286 286 287 287 287 287 288 289 290 289 288 290 290 288 289 291 289 289 289 290 291 290 291 291 291 290 290 290 289 289 289
290 291 288 294 294 293 294 294 294 293 291 294 289 290 291 291 290 293 294 294 290 293 299 294 294 295 296 296 295 291 293 294 293 289 290 290 287 287 287 287 286 286 287 287 288 288 290 286 290 287 286 287 288 287 287 286 286 286 287 286 286 286 287 288 289 289 289 289 290 289 287 287 290 289 288 290 290 290 290 290 291 291 290 290 290 290 289 289
295 293 295 292 289 291 292 293 292 292 288 291 290 290 291 291 291 294 294 298 295 292 295 294 296 294 293 294 294 295 298 296 294 293 293 293 289 292 290 288 290 286 286 287 287 288 289 285 286 287 284 284 286 286 286 284 284 285 286 286 285 285 285 287 286 289 288 287 288 288 287 288 290 290 289 289 289 290 289 290 290 290 290 290 290 290 289 290
295 296 295 294 289 293 290 291 293 291 286 290 291 291 291 291 294 294 290 295 297 298 298 297 297 294 290 292 292 296 299 296 294 294 296 296 296 294 296 292 292 288 286 287 287 287 287 286 283 285 282 284 283 286 285 284 284 282 284 287 287 288 289 290 289 289 289 290 287 286 287 292 291 290 289 288 289 290 290 291 291 291 290 289 290 289 290 290
Wind_Speed
1 1 2 2 3 4 5 6 6 6 6 7 7 8 8 8 9 9 9 10 11 11 12 12 12 13 13 13 13 13 13 1 3 1 0 1 2 4 5 5 6 4 2 2 4 3 5 3 3 2 3 1 2 1 1 2 1 2 2 2 2 1 2 1 1 1 4 5 3 1 1 4 2 1 1 1 5 5 4 8 2 7 6 3 2 3 4 5
2 1 1 2 2 3 4 5 5 6 6 6 7 7 8 9 9 9 9 10 11 12 12 12 13 13 14 14 13 13 8 2 2 1 0 1 2 4 4 4 3 1 2 1 4 4 4 6 3 4 3 1 1 0 1 1 1 2 1 3 2 1 1 1 1 3 3 3 4 2 3 3 3 4 1 2 1 4 4 3 2 6 4 5 5 5 6 7
2 1 1 1 2 2 2 3 4 5 6 6 6 7 7 8 9 9 9 10 11 12 12 13 13 14 14 14 14 12 5 2 1 3 2 2 3 4 2 1 1 1 1 0 2 2 1 3 3 3 2 0 0 1 2 1 1 0 2 3 0 2 1 3 3 3 2 6 5 4 0 4 2 1 0 1 0 4 5 5 1 3 4 3 3 5 5 7
3 3 2 2 1 2 2 2 2 4 5 6 6 7 8 8 8 9 9 10 11 12 13 14 14 14 14 13 12 7 1 1 2 2 1 4 4 3 1 0 0 0 1 1 2 3 3 4 4 1 1 1 1 1 2 1 2 1 4 1 2 2 2 1 4 3 4 4 4 4 0 1 0 2 2 2 1 2 1 1 4 6 7 5 4 4 5 6
4 4 4 3 2 2 2 3 3 3 4 5 6 6 7 8 8 9 10 10 11 12 13 14 14 14 15 12 11 2 2 3 1 1 1 5 5 4 2 1 1 1 1 3 4 3 2 2 1 2 1 1 2 2 0 1 1 1 1 2 3 2 5 1 4 3 3 3 4 2 1 2 0 1 2 3 3 5 6 3 5 7 6 6 5 4 4 5
5 5 4 4 3 2 2 2 3 3 4 4 5 6 6 7 8 9 10 11 12 13 14 14 14 15 15 14 4 1 1 1 2 1 3 5 6 4 3 2 2 1 3 5 2 4 3 4 2 1 1 0 0 3 2 0 1 1 1 1 3 1 4 2 1 0 2 1 1 1 1 1 1 1 2 4 4 2 2 5 5 6 5 5 5 4 4 5
6 5 5 4 3 3 2 2 3 4 4 4 5 5 6 7 8 9 10 12 12 13 14 14 14 16 16 11 1 1 1 1 2 2 1 5 6 4 3 4 4 3 3 3 5 3 4 4 2 1 0 2 1 2 0 0 2 4 0 1 2 1 4 3 3 2 2 6 1 1 1 1 1 1 0 3 0 6 5 5 5 4 5 6 6 4 5 5
7 6 5 4 4 3 2 2 3 2 3 4 5 5 6 7 8 10 10 12 13 13 13 14 14 14 14 3 1 1 1 2 1 2 4 5 6 5 3 2 1 3 4 2 2 3 2 4 1 0 3 1 1 1 1 3 3 2 1 0 1 1 2 4 4 2 1 2 1 2 1 3 3 2 0 3 5 5 6 5 5 5 6 6 6 5 5 5
7 7 6 5 4 3 3 3 3 3 3 3 5 5 6 7 8 10 11 11 12 13 13 13 13 12 8 0 1 2 1 1 3 3 3 2 5 1 5 1 2 2 2 4 2 1 1 1 2 1 0 1 0 3 1 2 2 1 0 0 1 1 1 4 4 4 4 1 2 0 4 4 4 2 3 6 6 6 6 5 5 6 7 6 5 5 5 5
8 8 7 5 5 4 6 2 3 3 3 4 5 6 6 7 8 9 11 11 12 12 13 13 12 14 3 0 2 1 1 1 1 2 3 3 1 2 5 2 3 4 2 3 2 3 2 1 1 1 1 0 1 0 0 3 1 2 1 1 1 4 3 2 6 5 5 4 4 4 2 3 3 6 5 1 6 7 6 6 5 7 6 5 5 4 4 6
10 9 9 9 9 8 4 4 2 3 4 4 5 6 7 8 8 10 11 12 12 13 12 12 11 10 0 1 3 2 1 2 1 2 3 1 3 4 1 3 3 2 3 2 1 1 2 1 1 0 1 1 1 1 2 1 1 3 1 3 4 6 4 3 3 6 3 3 5 6 4 1 1 1 6 7 7 7 9 6 6 6 5 5 5 5 4 5
11 10 10 10 9 9 8 5 4 3 4 5 5 6 7 8 9 10 11 12 13 12 12 11 11 2 1 2 3 3 2 3 2 2 0 1 3 3 0 3 3 2 2 1 1 2 1 0 2 2 1 0 0 1 0 1 1 0 1 2 5 5 4 4 7 6 6 2 6 5 1 3 1 7 1 10 8 6 7 7 6 6 6 5 4 4 4 4
11 11 10 10 10 10 10 8 4 4 4 5 5 6 7 8 9 11 11 12 11 12 12 9 6 1 0 0 5 2 2 3 3 3 2 4 3 1 1 1 1 1 2 1 0 1 1 2 3 3 1 1 1 0 1 1 1 1 1 2 4 4 5 9 4 4 6 2 7 5 3 7 8 6 3 7 9 6 6 6 5 5 6 5 5 5 4 4
9 10 10 10 7 8 9 9 6 4 4 5 6 6 7 8 9 10 11 12 13 12 10 9 2 1 1 3 1 3 3 3 2 3 1 1 5 1 2 1 1 0 1 3 1 1 0 2 3 1 0 1 0 0 2 1 2 2 2 2 2 3 4 4 3 5 7 1 6 4 4 8 6 2 4 6 7 10 8 6 6 6 5 5 5 5 5 3
9 9 10 10 9 7 6 9 8 3 4 5 6 7 7 9 10 10 12 12 11 9 9 7 1 0 1 3 1 4 4 1 1 2 3 2 3 1 0 1 2 2 1 3 0 1 1 2 2 2 0 1 2 1 2 1 0 0 2 3 3 3 5 5 2 9 11 0 3 6 2 8 7 5 5 6 6 6 8 7 7 6 6 6 5 5 5 5
9 10 10 10 9 7 6 9 9 5 5 7 6 6 6 8 10 12 12 9 11 10 4 1 1 1 2 3 1 2 1 1 2 3 1 3 2 1 3 3 1 1 2 1 0 1 2 3 2 1 0 2 3 4 3 3 2 1 4 3 3 2 5 5 1 2 3 4 1 7 5 2 4 5 6 5 7 6 6 6 7 8 8 7 6 6 5 5
10 9 10 10 8 7 8 8 6 5 5 6 5 4 7 10 10 10 11 10 5 3 1 0 1 1 1 1 2 1 3 2 2 1 0 1 2 6 4 2 1 1 3 1 4 2 2 2 0 2 1 2 3 4 3 2 5 2 0 5 4 3 1 3 4 3 1 6 4 4 2 6 2 4 7 6 9 7 7 9 9 8 7 7 6 7 7 6
11 10 10 10 10 7 8 8 8 5 6 5 3 4 5 7 9 10 6 3 2 2 3 2 2 1 5 2 3 4 1 3 2 3 2 1 2 3 3 1 1 3 1 1 3 1 1 1 1 4 1 0 2 2 4 7 6 3 2 2 6 2 4 6 1 3 5 2 4 2 5 10 8 3 6 9 8 8 10 10 11 9 8 8 7 7 7 6
11 11 10 10 11 8 8 9 8 6 6 6 5 7 9 9 3 1 1 1 1 1 1 2 3 4 3 6 1 4 3 2 3 4 2 2 0 0 1 1 4 4 1 1 2 3 1 3 4 2 3 3 6 8 9 8 6 5 5 4 3 2 3 2 5 2 10 5 5 5 8 11 10 6 6 5 7 9 9 3 4 6 7 7 7 7 7 7
12 12 11 11 11 9 7 9 9 7 6 2 2 2 1 1 1 0 1 1 4 7 1 5 7 1 3 3 4 0 1 4 4 2 1 2 3 2 1 2 1 2 4 4 0 3 3 4 5 7 8 9 5 9 10 8 5 4 2 2 4 4 5 2 1 3 4 1 7 10 10 7 6 8 10 11 6 6 6 7 8 8 8 8 7 7 7 8
13 12 12 12 12 8 9 9 9 7 5 1 3 1 3 6 6 5 4 6 5 7 4 3 12 7 2 4 4 8 5 1 1 1 3 0 3 6 2 2 2 2 3 4 6 1 3 5 8 8 9 6 9 9 8 6 6 5 6 5 7 2 7 3 2 2 1 4 3 5 6 8 9 5 9 5 6 11 12 11 10 10 10 9 9 8 8 6
13 13 12 13 13 9 12 11 10 7 5 1 2 4 2 0 0 1 2 3 4 14 11 7 2 5 2 3 5 4 5 3 1 1 2 1 4 6 3 3 4 7 2 2 2 1 4 10 7 12 6 4 5 5 5 7 7 7 7 6 5 8 4 4 1 0 1 1 7 5 6 8 8 7 5 8 12 12 14 16 16 15 12 10 9 9 8 8
14 13 14 13 12 10 12 11 8 7 2 2 4 3 3 1 1 1 1 1 5 4 9 7 6 10 4 3 2 1 4 4 7 5 5 3 3 4 6 4 5 4 2 4 7 4 5 5 13 9 4 6 6 5 6 4 3 6 6 3 8 4 1 6 2 0 2 4 2 1 6 8 7 7 8 10 14 10 10 9 6 8 14 14 14 13 12 10
15 14 14 14 13 12 12 11 8 4 4 5 7 7 2 1 3 3 1 2 3 4 6 8 10 4 9 6 5 7 7 3 5 8 3 5 9 4 4 7 8 4 7 9 11 11 11 3 5 7 7 7 7 6 5 7 8 3 5 4 3 3 4 6 5 1 1 3 1 5 8 9 6 12 11 9 4 1 1 2 2 5 5 6 6 7 11 14
16 15 14 14 12 12 12 9 5 4 2 4 10 11 10 4 4 2 1 3 2 5 2 1 4 3 4 4 4 6 3 2 5 4 8 9 5 3 5 3 3 8 8 8 7 7 11 7 3 6 6 7 6 6 7 7 7 5 4 7 6 4 4 4 1 1 2 3 3 2 6 6 5 10 13 3 2 4 2 6 8 7 6 8 10 11 7 7
17 16 15 14 14 13 13 7 5 4 7 7 4 4 10 6 4 1 1 1 7 3 3 6 5 5 5 3 5 4 4 6 2 4 10 9 3 4 2 4 4 8 8 5 8 5 6 5 7 5 5 6 7 7 5 8 8 3 5 5 6 7 6 6 4 2 3 5 3 2 7 9 1 2 6 4 5 9 3 7 9 6 7 8 10 10 10 11
17 17 16 17 16 15 10 7 5 9 6 8 9 7 3 4 1 1 1 3 7 5 8 1 1 2 1 7 8 4 3 5 1 5 6 1 9 0 7 6 2 0 3 2 1 7 4 7 9 6 6 8 6 7 5 9 6 5 2 2 6 5 6 7 5 5 6 2 2 0 3 7 14 8 7 5 8 10 11 11 8 8 8 9 9 9 10 10
19 18 18 19 18 19 4 5 9 10 8 2 3 10 3 4 3 0 2 1 6 4 3 2 1 2 1 5 11 10 1 5 4 3 1 2 1 2 3 7 10 9 4 5 12 1 4 5 6 6 6 7 9 7 5 7 6 4 2 5 3 6 6 3 2 2 1 3 8 3 2 3 10 4 2 8 7 9 15 15 14 13 12 10 9 10 10 10
20 19 20 19 17 21 9 3 8 8 8 1 3 6 5 4 2 3 4 4 1 2 3 4 4 2 4 4 4 2 2 4 1 1 2 2 3 2 5 4 3 5 5 9 10 0 1 5 8 10 8 8 4 0 3 9 5 2 2 5 5 5 4 3 1 1 2 1 7 6 5 5 19 4 3 0 5 12 13 16 17 16 15 13 11 9 8 7
21 20 20 19 14 14 11 1 6 6 4 2 5 7 8 7 2 2 4 7 1 4 2 1 2 7 6 12 3 1 3 1 2 0 1 3 1 2 0 0 2 2 2 3 4 3 0 1 3 3 5 4 5 1 1 2 3 4 5 6 5 8 4 3 4 3 3 8 8 8 10 8 13 2 9 7 9 12 12 5 5 5 8 10 11 12 10 9
22 22 21 20 14 11 7 9 8 3 5 4 8 8 7 2 4 5 8 6 4 1 1 2 2 4 11 12 6 3 4 1 1 3 3 0 0 3 1 4 3 2 1 2 5 3 1 1 1 1 2 3 3 3 4 2 3 8 2 4 5 3 5 3 2 2 2 12 5 12 10 11 12 4 4 9 2 2 5 9 9 11 15 14 11 9 10 10
23 23 23 18 9 8 15 12 9 5 6 8 10 10 7 5 3 8 9 5 2 6 10 5 1 6 12 9 10 13 10 2 4 5 9 7 6 9 10 10 7 4 5 7 8 2 3 3 2 1 3 8 3 5 3 5 1 5 7 7 6 3 4 2 2 3 8 11 1 7 9 2 18 13 5 5 7 11 6 8 9 13 13 11 10 10 11 10
24 24 26 18 11 10 11 4 10 7 5 7 7 4 6 7 12 12 11 7 5 5 3 5 9 9 11 8 5 3 2 8 3 5 5 1 6 7 2 3 5 5 5 2 7 1 7 1 2 3 3 4 8 9 2 0 3 7 9 8 6 2 3 5 3 3 5 4 3 3 3 9 2 8 10 18 17 5 4 6 5 10 13 14 14 12 12 11
25 23 17 16 14 10 7 8 9 11 9 5 7 6 0 9 14 15 18 12 4 1 6 3 5 4 9 10 6 11 6 2 9 5 7 5 6 7 6 6 6 4 4 2 7 7 4 4 8 8 5 5 9 12 14 7 9 9 4 12 10 8 4 4 6 7 7 6 2 2 5 7 4 6 1 5 5 5 4 4 1 5 7 9 9 9 10 11
26 22 16 12 14 14 12 11 12 14 10 9 10 11 15 15 12 17 15 13 2 3 2 4 8 7 5 2 0 5 4 2 6 6 6 8 9 6 10 12 10 4 2 3 4 2 13 8 6 14 0 9 12 5 7 5 3 3 3 4 4 11 6 10 3 2 1 1 2 1 7 4 6 2 2 1 3 3 4 2 6 7 8 10 10 12 12 11
19 14 14 8 12 12 13 12 14 13 12 10 11 13 18 15 16 11 6 6 2 5 4 6 4 5 5 6 1 10 4 5 6 5 3 7 1 7 3 2 10 15 11 11 5 4 1 6 2 3 3 13 11 4 4 8 7 4 5 8 9 1 4 3 2 0 0 2 11 5 7 6 7 10 6 1 0 1 3 2 4 7 9 10 11 11 12 12
14 13 12 15 16 14 13 13 14 14 12 13 15 16 13 10 8 4 4 13 9 13 9 10 7 9 7 8 5 7 6 5 5 6 5 3 5 7 3 9 10 13 14 9 3 4 8 4 2 3 4 1 1 1 1 2 4 6 5 8 3 2 3 3 5 1 1 7 7 5 10 5 2 12 2 1 1 2 1 3 4 5 9 12 11 12 13 13
13 10 14 18 17 17 16 12 17 14 12 14 18 17 9 14 7 7 2 5 7 12 8 13 3 11 6 10 9 8 4 8 9 5 4 7 6 7 13 3 9 16 19 7 5 2 3 5 2 1 0 2 2 3 1 1 1 8 6 3 8 4 3 2 2 7 4 7 6 4 6 10 10 12 3 3 6 9 8 5 5 8 9 11 10 10 8 8
9 10 8 17 14 19 18 16 15 16 16 15 14 18 9 16 11 5 4 8 6 9 13 11 9 6 7 9 5 7 11 10 9 9 7 5 4 5 13 8 6 15 14 12 6 3 2 6 2 1 2 1 1 4 7 6 0 1 2 3 0 3 1 6 8 1 3 6 1 6 4 12 7 7 10 10 14 14 11 8 13 15 15 13 12 12 13 13
10 3 8 10 20 20 18 17 14 15 14 20 15 16 6 8 5 4 6 7 5 10 9 11 9 7 10 8 14 9 7 5 13 10 6 3 8 1 7 8 6 9 16 16 9 4 4 2 5 1 3 2 3 5 10 13 10 1 2 4 1 0 2 3 1 5 6 3 4 6 10 6 5 5 12 14 15 15 16 18 14 13 13 12 12 14 13 12
2 2 1 12 20 18 17 14 13 17 16 10 11 10 7 7 6 5 7 2 0 3 4 8 11 13 8 6 7 8 6 9 6 7 7 4 8 2 5 9 7 8 5 7 7 3 2 3 9 3 1 6 5 3 4 5 9 11 13 12 13 9 5 5 9 1 3 2 6 4 15 5 2 2 3 7 9 10 15 17 15 13 13 12 11 11 12 12
4 5 3 13 20 21 18 17 9 8 9 14 17 13 8 3 1 6 6 3 1 2 2 1 3 9 7 9 8 7 8 8 8 6 5 9 6 5 2 3 5 12 13 10 14 2 5 2 6 3 6 8 6 2 2 2 1 2 5 6 10 9 7 7 10 4 0 7 1 2 2 12 1 1 2 4 5 8 12 11 11 9 10 10 9 9 9 10
4 6 6 7 23 26 15 13 10 11 9 12 9 7 0 7 11 7 10 8 8 4 2 4 6 8 6 5 3 7 11 5 12 11 5 8 5 5 3 2 7 12 9 1 7 2 8 3 6 1 1 1 2 1 2 2 1 2 3 3 4 10 7 8 5 4 7 2 3 1 5 6 2 1 3 4 5 6 5 7 9 7 8 9 11 11 11 10
4 5 2 4 12 19 18 16 16 14 13 7 11 11 12 4 9 9 13 16 11 6 7 3 1 3 3 2 4 10 11 5 7 11 5 4 5 2 3 2 8 9 11 8 10 9 6 4 5 3 1 0 0 2 1 2 1 5 4 5 6 3 6 3 2 1 1 10 6 7 15 7 1 2 2 4 4 1 6 7 8 9 8 8 9 10 10 8
2 2 3 3 4 12 18 12 12 11 12 13 14 18 12 8 6 14 13 13 11 7 4 7 7 4 3 2 5 4 11 15 3 9 3 2 3 1 6 4 5 3 2 4 8 9 6 4 10 9 12 10 8 9 8 10 11 3 2 4 9 14 10 5 7 7 9 2 12 9 16 4 4 2 2 3 3 2 1 3 4 6 9 10 8 9 10 11
7 3 2 3 3 3 5 2 10 15 14 12 11 14 15 12 6 8 9 9 12 11 9 2 4 5 4 4 3 6 9 1 4 4 8 5 2 1 1 3 4 3 3 9 10 7 3 1 8 12 13 14 7 2 1 7 5 8 7 12 11 10 14 11 6 4 14 3 9 17 14 9 9 2 3 3 1 0 1 3 7 6 6 7 8 10 11 12
4 7 4 3 1 4 3 1 3 11 12 15 11 8 18 20 10 4 8 5 9 11 5 5 3 8 3 8 9 7 5 5 3 5 11 9 1 0 3 1 3 4 4 6 5 7 2 3 11 11 10 12 4 2 3 8 9 10 9 12 13 14 13 14 14 17 7 4 16 9 4 12 16 4 7 6 4 3 4 5 7 7 9 10 10 10 8 6
6 3 8 2 1 1 1 7 4 10 13 15 7 6 15 18 13 8 5 9 3 10 7 1 4 14 16 18 12 8 7 8 7 8 3 1 5 0 3 4 1 3 1 2 1 3 6 7 7 5 14 14 6 2 5 2 4 5 11 13 14 15 14 18 20 17 10 13 19 7 13 17 15 7 9 10 10 11 10 6 3 4 6 6 8 9 10 11
1 1 2 7 5 7 7 2 2 4 11 14 8 7 10 15 18 15 6 9 6 5 13 7 16 18 15 15 13 10 10 8 10 8 7 7 8 6 3 2 3 2 1 1 1 1 4 8 3 9 16 13 11 6 4 5 3 2 6 11 13 15 19 19 20 19 15 13 17 14 7 14 10 6 8 6 6 5 4 3 4 8 8 8 8 8 9 9
5 4 2 0 3 6 5 6 4 4 8 12 10 12 11 16 20 12 3 10 10 13 11 17 15 14 14 12 13 11 13 19 16 13 8 12 5 4 8 5 6 2 1 5 4 2 6 3 8 5 7 12 9 4 5 5 6 12 13 11 11 7 8 13 16 16 14 16 20 11 5 14 3 2 3 2 5 7 8 7 6 5 7 9 9 9 8 10
1 0 1 6 8 6 6 6 6 7 5 3 9 8 10 14 18 17 13 10 16 14 13 20 23 12 9 10 12 16 19 17 12 12 11 17 16 13 11 4 10 10 5 4 2 1 4 3 2 5 7 9 4 9 9 5 4 12 19 19 7 7 7 15 14 14 12 19 17 14 15 18 4 3 5 5 7 10 9 7 6 5 6 8 8 8 8 8
2 0 1 1 7 7 10 6 8 6 10 8 7 7 7 15 12 7 6 5 10 12 14 21 19 12 7 12 17 24 17 4 4 4 9 5 2 3 1 7 13 12 9 8 3 7 6 6 6 6 7 6 2 8 8 5 2 9 26 17 12 17 18 14 14 13 15 16 12 14 19 18 6 6 8 4 7 8 10 10 8 6 7 9 9 9 9 8
Wind_Direction
285 337 355 348 355 351 355 351 351 350 351 353 350 348 349 357 356 350 348 347 341 342 340 337 337 336 338 339 339 338 339 48 355 353 112 204 292 302 299 287 295 304 340 14 351 25 339 343 318 304 21 29 288 44 278 34 63 59 57 109 32 194 65 252 147 195 178 124 186 54 110 118 130 327 284 42 51 84 62 73 39 48 63 106 120 102 81 44
214 280 332 333 343 356 351 348 347 345 352 347 349 347 348 349 350 346 348 342 342 339 339 336 335 336 337 339 341 342 346 41 27 63 190 14 262 289 291 283 301 333 291 10 9 11 32 351 322 4 41 337 316 138 36 295 72 92 81 82 158 181 299 158 161 97 114 165 167 174 75 115 182 136 271 89 303 107 73 50 63 84 62 47 57 66 69 58
223 243 272 313 324 328 341 345 344 347 344 346 346 347 349 348 342 343 345 342 340 338 337 333 334 335 337 339 335 345 353 11 60 30 295 23 302 277 271 267 353 63 59 325 264 338 341 278 291 20 353 55 330 212 45 285 64 283 108 69 247 207 83 60 94 81 78 147 123 99 16 103 203 122 169 159 111 101 149 146 107 120 137 120 75 75 73 69
218 224 231 252 272 293 318 321 331 347 342 343 344 343 344 342 339 342 341 340 339 335 335 335 334 335 336 335 335 332 66 68 51 254 263 347 309 268 276 26 330 163 20 222 275 308 302 336 322 61 352 67 285 69 54 299 78 292 70 155 204 208 91 327 75 81 65 103 138 125 173 61 287 180 117 169 92 8 244 247 191 162 152 145 124 95 82 75
214 214 222 226 246 280 307 312 320 340 341 340 342 336 337 332 337 338 339 339 337 336 336 335 336 334 334 330 334 358 51 68 245 232 327 337 312 281 270 280 86 34 89 285 329 308 332 297 3 28 95 288 6 20 334 321 122 73 126 199 170 74 81 224 107 84 93 71 89 107 84 230 242 27 124 131 166 209 194 170 121 125 139 140 121 103 88 87
210 215 219 217 225 241 269 308 312 324 336 333 328 330 327 328 333 334 339 339 338 338 336 336 335 337 332 323 332 79 71 67 228 225 344 321 301 291 296 295 330 43 24 358 14 320 27 346 42 27 359 85 240 111 266 170 100 64 319 55 42 120 133 219 62 211 87 49 99 107 218 106 98 258 222 144 187 187 148 143 129 124 129 125 111 104 87 97
212 217 217 216 223 251 268 312 327 325 322 314 320 322 322 328 330 337 337 338 336 334 335 334 336 337 335 325 137 131 137 234 26 260 348 294 285 283 297 317 10 18 36 18 14 50 5 12 48 290 65 45 17 110 253 349 53 106 188 4 9 69 139 155 149 147 97 119 214 209 85 168 120 242 286 109 328 139 127 126 126 123 107 97 91 93 109 107
216 216 211 215 225 243 276 284 288 304 304 303 310 317 326 327 333 335 335 332 330 330 330 334 335 335 346 11 25 348 51 239 270 235 243 256 273 269 330 331 6 19 30 39 29 6 4 17 4 348 63 105 241 122 318 50 7 84 25 339 287 55 170 146 147 145 139 237 206 66 202 230 168 194 55 171 157 145 136 129 130 113 99 90 103 107 96 86
219 216 209 215 224 227 249 255 293 296 296 305 303 314 322 329 332 331 326 326 325 325 328 331 332 332 325 120 127 25 318 237 212 191 206 261 268 281 22 40 8 39 342 333 358 81 75 286 50 66 239 47 258 66 324 77 345 50 171 39 349 320 152 172 149 175 185 220 222 25 251 272 241 178 237 171 173 160 141 128 134 113 102 102 108 113 105 92
222 218 216 212 225 216 226 223 247 280 300 309 316 318 318 324 325 323 322 321 321 324 325 328 332 327 333 127 34 60 256 323 229 187 188 220 279 34 35 17 43 37 31 318 19 32 83 264 114 225 146 15 339 131 151 89 216 159 86 30 299 269 292 203 176 211 198 202 183 190 246 258 282 153 266 165 166 155 133 145 137 121 125 122 111 103 102 96
232 225 223 211 209 216 235 242 301 313 322 325 318 313 313 316 319 318 319 318 319 318 321 323 333 345 48 30 95 218 221 80 171 140 218 307 66 64 31 5 21 63 70 346 70 104 174 114 283 59 44 214 82 329 78 223 143 71 86 0 316 288 276 240 220 215 142 274 187 174 232 250 323 155 230 166 173 158 144 157 139 131 133 129 121 109 109 95
230 233 237 223 210 218 231 234 277 318 314 320 312 305 304 307 311 316 315 317 314 314 315 322 333 333 273 74 144 215 178 243 137 160 63 103 92 149 178 90 78 116 103 68 353 324 78 97 70 57 194 139 36 83 56 252 95 194 77 322 288 330 311 248 213 219 162 242 155 143 353 305 219 227 221 155 156 160 145 155 149 140 140 135 126 118 108 118
226 231 236 239 223 218 227 236 266 300 310 312 309 300 299 301 309 314 316 314 313 311 312 319 330 275 18 39 237 269 290 289 129 100 53 86 93 52 91 97 69 109 125 131 205 293 337 85 93 76 261 108 176 153 219 97 191 55 33 174 342 360 316 260 217 185 156 221 143 123 282 265 242 227 153 151 154 145 140 159 156 151 146 146 138 130 116 106
215 225 232 241 241 229 231 230 238 264 293 298 298 296 295 300 304 307 309 306 308 304 309 308 340 341 100 248 14 267 291 353 109 74 174 127 77 347 12 351 11 50 87 122 210 239 6 65 92 154 82 100 217 313 71 357 31 165 253 74 191 17 277 294 196 175 158 164 150 101 192 276 277 231 182 173 162 156 161 173 168 162 162 153 147 132 120 118
215 213 224 237 242 244 244 230 231 217 257 290 290 278 284 297 301 301 302 304 298 302 308 319 173 77 67 266 334 302 330 85 111 229 174 149 111 55 2 34 43 53 122 137 167 281 108 60 63 50 224 296 64 76 346 13 345 191 41 299 321 170 279 302 51 161 172 196 142 99 275 244 265 221 196 187 171 158 165 178 176 171 167 162 152 142 130 125
222 215 221 234 239 243 232 218 227 219 243 268 276 264 278 285 292 297 295 285 290 296 296 215 163 154 104 286 244 316 35 151 223 202 184 129 132 158 186 131 35 22 36 348 43 353 42 93 90 181 85 23 64 95 40 28 328 357 137 266 271 155 252 342 268 247 146 118 251 177 203 307 295 203 192 195 179 178 171 187 185 178 174 165 157 152 144 128
220 219 220 232 235 232 225 220 217 208 248 265 276 275 268 275 292 305 295 280 279 260 184 7 6 170 243 259 81 191 215 223 306 70 78 53 117 149 103 74 68 55 36 29 17 64 348 76 263 36 57 136 166 102 71 4 308 313 163 213 217 206 274 251 301 258 164 138 202 246 232 232 235 187 190 197 188 185 192 193 189 183 175 173 160 153 156 149
215 220 217 230 239 230 225 211 201 207 246 268 273 275 279 290 303 318 304 237 231 244 248 219 224 22 279 68 205 219 148 133 161 163 81 281 103 126 106 97 119 99 63 38 351 88 306 74 62 195 15 137 106 90 126 231 198 206 200 261 295 276 210 225 153 259 128 205 175 223 241 261 262 238 211 199 192 196 206 196 190 180 173 171 164 163 163 155
209 217 218 226 236 231 227 205 192 208 241 265 263 263 273 285 297 208 333 317 105 14 352 222 129 165 210 220 154 75 62 168 97 80 218 135 247 108 67 99 105 119 125 87 277 114 11 52 25 60 214 193 202 178 185 212 167 200 170 183 181 200 282 233 231 255 170 190 222 196 217 240 245 236 229 229 206 203 218 188 189 184 175 171 171 168 162 153
203 209 218 226 231 229 219 187 189 204 241 274 309 298 21 50 25 324 319 344 230 195 173 182 194 63 50 77 133 284 219 32 93 270 161 258 106 106 95 117 63 62 109 180 229 215 124 140 172 195 212 208 197 196 204 211 188 230 232 192 214 215 277 274 250 247 160 101 223 226 231 243 255 220 217 212 195 217 219 213 197 192 181 178 175 172 157 154
200 201 211 223 233 218 196 187 187 214 214 185 287 244 165 178 127 238 199 240 244 278 269 236 198 185 196 148 141 150 120 266 70 200 203 194 111 112 214 97 91 213 234 176 152 270 91 195 229 218 216 179 194 206 215 229 239 230 242 257 277 200 255 241 227 197 296 174 288 247 250 251 250 236 226 204 181 212 209 212 207 196 189 181 172 168 159 151
202 200 208 215 232 215 201 184 192 213 169 142 269 224 299 255 122 242 125 286 257 235 248 247 316 300 32 133 195 164 94 98 40 228 278 133 187 144 240 124 156 189 232 107 39 120 196 216 226 223 216 186 226 216 204 209 234 240 224 243 257 263 243 291 14 25 296 154 258 281 271 258 261 260 221 190 200 214 209 203 200 187 185 180 177 166 148 151
198 201 206 212 219 210 195 187 194 183 130 186 226 227 255 235 4 196 102 174 275 229 205 224 228 235 242 30 206 173 166 165 186 210 209 153 130 213 155 127 181 197 122 139 162 179 251 273 238 225 187 210 240 238 248 236 206 215 236 205 230 237 222 284 291 292 246 162 227 275 277 277 278 263 248 213 204 220 220 218 217 196 181 182 183 171 162 161
199 195 205 211 203 196 189 186 183 168 219 220 237 220 244 69 76 39 119 239 274 277 189 205 196 188 202 160 206 163 176 221 133 208 210 150 163 172 134 177 182 160 197 196 194 188 203 213 218 185 197 191 221 228 219 225 248 244 191 190 193 227 225 193 257 274 320 321 17 307 293 272 227 256 259 236 226 17 30 124 187 212 207 176 147 155 167 168
196 194 198 204 196 179 185 158 176 208 155 218 256 248 267 290 21 25 45 330 309 276 237 266 155 226 184 31 117 162 227 264 209 159 177 166 151 106 217 175 120 208 200 201 211 230 241 237 92 154 197 213 214 240 218 182 229 259 227 193 208 185 223 266 17 80 13 329 256 169 315 275 249 236 247 278 106 215 243 182 203 190 173 160 171 174 172 166
197 193 193 200 194 184 157 175 205 163 165 208 218 219 237 245 267 27 72 87 282 241 51 225 148 252 114 158 125 163 66 236 197 174 159 201 179 149 119 208 163 213 197 188 206 215 214 190 220 178 182 212 210 216 227 170 214 206 268 200 207 210 219 227 213 75 281 247 286 127 214 281 306 243 238 217 186 218 239 218 210 189 180 181 178 174 174 168
195 193 190 200 194 168 159 217 135 144 174 251 228 237 220 204 112 344 189 14 295 181 166 268 142 265 13 180 147 112 210 241 30 71 147 117 188 4 158 201 121 224 166 156 334 262 140 178 187 193 181 196 209 218 237 173 165 237 242 165 189 208 214 219 214 207 241 230 295 46 126 277 286 234 236 199 197 221 225 228 216 206 195 193 184 178 174 172
195 192 195 198 196 178 211 116 142 180 196 213 169 194 166 140 89 131 86 40 268 100 123 243 212 325 60 178 158 164 229 146 111 233 16 280 57 327 189 192 185 178 185 130 227 275 155 185 169 184 188 189 202 205 197 159 159 214 247 161 142 182 203 170 180 195 221 19 290 191 53 309 252 293 266 167 213 242 236 224 217 209 201 195 188 183 177 173
193 193 196 198 197 188 222 169 170 199 222 266 182 147 125 110 101 105 120 208 194 92 305 101 281 91 90 117 159 74 141 359 157 329 309 34 27 144 207 205 157 177 214 181 224 253 320 170 196 169 173 205 211 278 146 161 191 261 152 87 77 77 72 97 111 96 330 312 250 181 165 217 277 187 114 295 235 239 233 226 220 206 198 192 190 187 175 162
192 193 194 194 187 190 213 242 197 222 185 139 123 121 115 120 91 99 67 246 110 250 102 197 136 188 150 154 175 97 108 357 37 107 42 152 211 24 322 175 118 106 243 316 266 199 218 330 185 103 196 185 129 109 114 230 191 130 78 65 21 34 33 6 67 88 17 255 243 179 195 165 278 195 178 155 217 213 230 246 232 195 199 202 197 182 174 162
193 192 194 186 193 187 161 215 203 176 151 133 123 121 124 50 139 139 212 219 27 156 55 146 173 108 148 144 167 236 88 125 98 147 137 46 358 40 43 29 43 43 24 340 307 330 26 2 118 267 84 99 108 84 353 73 143 129 106 116 55 343 15 33 350 69 197 263 191 184 189 175 226 293 266 223 286 317 218 229 207 190 196 196 187 178 170 161
192 194 194 194 187 150 190 202 158 167 146 147 137 151 158 154 315 191 222 72 277 202 160 178 203 161 175 177 163 177 170 116 165 173 168 184 165 174 202 184 152 170 261 216 254 12 284 182 253 43 248 136 103 91 338 19 10 88 96 88 139 239 46 324 58 239 204 242 250 200 175 274 238 249 258 271 274 265 218 216 212 198 196 179 169 166 166 163
192 194 195 199 183 201 201 109 142 143 131 142 151 189 171 151 208 206 229 148 248 129 244 124 169 172 178 169 209 138 80 166 181 183 128 129 152 230 291 188 212 147 209 212 204 134 275 266 182 210 357 239 137 164 156 183 235 129 142 154 137 193 209 256 223 240 282 301 247 168 180 236 321 287 238 248 253 263 279 277 232 195 181 172 168 162 161 165
192 191 195 197 199 199 179 155 146 139 128 139 155 180 264 184 223 204 212 205 205 26 103 120 135 137 156 176 202 160 179 236 158 192 160 160 165 207 244 254 204 248 90 95 168 176 237 318 240 144 244 184 185 192 188 162 158 201 114 151 188 159 159 226 187 210 222 226 291 288 114 235 128 235 250 242 278 292 296 285 157 141 154 153 147 141 145 156
190 192 193 192 198 197 182 162 154 146 147 161 177 186 185 210 215 212 212 204 173 103 94 124 131 138 210 283 258 201 137 196 177 138 181 150 205 184 189 204 210 128 142 136 238 92 211 227 262 191 140 155 187 201 114 98 106 229 173 58 98 216 143 231 187 191 269 332 315 209 205 187 193 238 266 269 306 12 355 32 106 113 124 132 143 158 165 167
186 192 188 184 196 187 176 171 156 148 159 179 186 193 202 191 214 195 232 153 153 146 130 94 113 148 207 193 312 193 225 116 209 146 230 211 153 196 192 177 182 190 173 189 162 187 100 250 299 124 54 171 197 125 190 148 198 215 111 203 208 145 169 276 354 236 101 13 254 155 275 288 300 275 224 160 46 345 17 70 113 136 143 147 160 167 172 174
190 181 197 188 200 175 177 170 158 155 181 198 194 208 204 225 211 106 207 187 174 128 137 158 214 169 179 202 187 190 216 82 185 147 219 149 276 204 181 220 187 196 212 158 241 197 154 229 317 113 200 311 99 172 87 357 142 99 190 223 82 55 102 149 235 359 188 243 268 149 232 265 114 275 39 57 150 262 245 183 180 159 159 166 175 177 179 178
190 197 201 197 182 167 169 174 157 164 178 209 210 207 197 223 193 184 147 121 112 163 171 198 246 160 201 173 197 176 223 176 189 173 198 185 242 183 188 182 195 195 204 213 189 255 142 277 204 341 254 298 346 110 26 343 47 161 193 210 142 244 249 245 106 249 212 238 284 244 218 247 188 239 93 231 220 217 220 206 176 188 189 184 177 179 172 160
193 189 218 209 161 165 171 169 168 162 188 202 209 212 208 222 198 176 181 174 165 156 194 204 188 209 160 186 174 183 172 192 163 190 144 223 218 190 184 171 209 199 198 186 212 222 51 191 305 334 99 253 51 125 192 201 286 47 77 165 178 101 152 143 199 181 121 245 151 286 86 254 179 220 179 208 207 207 194 197 207 199 192 183 181 177 175 177
181 191 246 154 155 168 167 172 173 178 190 208 198 223 193 225 186 215 239 169 187 172 211 200 194 180 195 200 160 168 212 183 167 195 186 201 192 263 180 193 177 191 193 188 203 133 228 145 249 205 297 108 188 185 203 173 173 171 119 198 199 123 257 117 299 169 173 190 206 272 285 261 250 204 187 203 202 203 187 200 205 200 196 193 183 178 179 179
251 237 255 151 160 155 159 176 191 186 189 211 230 236 224 214 189 214 236 181 201 354 179 203 185 203 178 151 200 168 169 178 187 184 191 221 182 245 211 182 168 177 154 180 207 171 180 205 203 123 177 214 256 246 213 196 193 183 170 192 181 157 166 178 251 105 182 152 240 159 259 263 251 70 243 223 223 205 202 198 198 197 190 188 184 184 179 178
228 246 243 165 147 154 165 183 201 182 186 190 210 200 212 152 326 213 219 234 199 260 25 89 238 204 178 198 161 181 158 184 188 186 221 193 209 189 241 64 171 147 148 179 195 193 147 94 94 191 213 201 225 280 309 157 110 176 184 217 193 193 171 188 224 231 357 237 128 199 326 279 204 312 295 261 248 223 212 198 203 190 183 181 181 184 185 183
226 255 314 195 161 159 173 208 181 194 191 216 209 208 314 194 214 187 197 210 218 193 224 199 202 189 223 168 168 173 167 191 174 203 182 203 225 197 221 231 176 157 136 30 49 217 101 145 195 255 112 329 341 323 14 30 94 327 275 187 165 208 189 209 205 168 203 223 195 315 252 264 324 335 304 299 280 247 188 194 198 170 173 178 172 175 180 177
242 273 301 303 186 167 181 191 194 193 204 201 192 209 202 218 195 189 206 201 205 161 197 194 235 234 207 141 146 179 185 190 220 196 216 186 205 131 291 298 175 166 159 209 160 191 149 230 142 159 296 285 318 337 294 344 70 217 198 195 198 185 206 218 82 133 286 222 159 159 246 253 276 313 323 9 5 79 184 179 168 171 171 174 179 175 172 169
240 266 247 269 289 196 191 192 196 189 192 184 182 202 199 217 213 211 194 203 204 211 175 217 197 141 186 170 179 157 190 201 159 217 138 188 199 335 320 57 306 150 44 154 139 162 180 175 157 191 205 209 213 194 192 203 209 203 216 165 198 196 193 175 236 208 233 213 143 224 249 249 282 327 7 6 21 38 4 184 172 170 167 168 173 174 169 167
175 252 207 263 208 323 268 9 193 184 186 186 189 207 202 211 216 210 191 211 199 206 209 90 188 154 181 135 153 198 205 278 137 187 172 199 198 318 29 334 44 147 219 142 138 139 163 178 199 204 204 221 220 128 190 110 83 186 215 184 209 203 202 201 227 203 222 111 193 226 239 292 278 280 291 268 299 271 135 154 177 176 182 181 168 168 171 176
131 215 146 249 259 230 287 336 180 169 197 173 193 173 199 209 195 195 189 219 199 196 194 176 154 181 211 196 196 205 195 190 21 122 196 171 49 262 16 38 14 14 147 103 132 96 98 188 221 216 230 236 142 169 188 162 169 206 182 208 200 196 194 193 204 227 121 148 248 230 133 245 252 200 232 232 244 237 232 191 177 182 179 172 167 164 163 159
216 188 176 198 262 256 233 255 201 200 196 179 208 162 197 200 196 197 184 225 137 191 181 330 224 210 195 197 194 206 169 201 157 204 150 93 110 20 42 356 42 307 305 112 315 128 157 206 224 172 239 243 213 155 146 144 207 192 201 200 196 201 192 200 219 223 149 208 238 225 177 232 248 201 218 210 192 197 200 195 182 149 128 126 139 156 168 173
135 21 171 136 207 237 214 238 134 248 207 177 206 195 193 198 202 200 176 183 195 203 198 199 211 213 208 202 195 203 182 186 225 209 154 176 165 140 117 17 282 315 125 105 143 210 109 233 166 185 232 240 237 207 178 186 220 261 224 218 208 197 202 204 220 221 210 228 240 245 222 234 245 231 221 215 189 181 149 116 112 134 150 143 146 156 170 173
191 160 216 351 235 253 241 229 200 234 264 185 188 202 196 199 206 195 160 172 188 214 196 217 221 206 205 200 197 204 201 207 202 190 193 160 178 186 192 181 147 56 170 180 167 263 163 230 143 164 223 246 234 208 210 210 214 249 243 226 220 209 220 221 225 228 224 244 247 247 276 262 248 211 167 137 112 86 110 147 167 152 141 147 149 169 176 183
356 53 211 147 200 211 220 227 211 213 212 224 222 205 201 204 213 195 203 193 194 188 186 210 218 199 207 205 206 219 216 213 211 190 173 165 189 198 163 221 144 151 163 161 151 158 178 233 54 157 198 253 170 196 218 200 220 250 261 239 190 130 194 220 222 221 206 225 233 240 245 253 170 134 85 114 129 131 146 159 162 170 163 147 162 178 185 186
75 165 71 166 212 180 203 195 223 213 225 208 196 216 208 218 220 182 227 232 223 210 199 209 213 186 196 197 214 221 218 164 143 170 175 185 51 114 148 141 151 151 165 186 169 151 183 141 155 172 187 223 113 186 183 154 266 286 251 235 182 205 219 222 225 219 215 219 226 227 232 234 182 142 121 159 152 154 154 170 170 168 174 168 178 186 193 196